EWG1PC EDDS-LIRF

Flight info

Callsign EWG1PC
Flight time 1h 25m
Altitude 37000
Route ROTWE7H ROTWE Y126 TUBLO N850 NATOR DCT TRA DCT ARGAX DCT RESIA DCT BENUS DCT GAVRA Y345 RITEB
Aircraft A320/M-SDE3FGHIRWY/LB1

Departure

Time 2026-05-04 18:09
Airport Stuttgart Airport (EDDS)

Arrival

Time 2026-05-04 19:35
Airport Rome–Fiumicino Leonardo da Vinci International Airport (LIRF)
Time Latitude Longitude Altitude Speed Heading
2026-05-04 17:41 48.68858 9.19294 1286 ft 0 kts 344°
2026-05-04 18:00 48.68857 9.19295 1285 ft 2 kts 344°
2026-05-04 18:01 48.68832 9.19304 1290 ft 4 kts 354°
2026-05-04 18:01 48.68805 9.19304 1288 ft 4 kts 18°
2026-05-04 18:01 48.68787 9.19285 1290 ft 2 kts 74°
2026-05-04 18:02 48.68785 9.19277 1285 ft 0 kts 75°
2026-05-04 18:04 48.68785 9.19278 1285 ft 1 kts 75°
2026-05-04 18:05 48.68794 9.19327 1287 ft 9 kts 75°
2026-05-04 18:05 48.68818 9.19458 1289 ft 17 kts 73°
2026-05-04 18:05 48.68854 9.19642 1287 ft 19 kts 73°
2026-05-04 18:05 48.68891 9.19842 1288 ft 11 kts 90°
2026-05-04 18:06 48.68753 9.19957 1285 ft 8 kts 166°
2026-05-04 18:06 48.68693 9.19980 1288 ft 10 kts 164°
2026-05-04 18:06 48.68658 9.19996 1289 ft 5 kts 162°
2026-05-04 18:07 48.68614 9.20017 1288 ft 8 kts 162°
2026-05-04 18:07 48.68585 9.20076 1285 ft 9 kts 77°
2026-05-04 18:07 48.68595 9.20126 1287 ft 1 kts 73°
2026-05-04 18:07 48.68599 9.20143 1285 ft 3 kts 73°
2026-05-04 18:08 48.68605 9.20176 1288 ft 0 kts 73°
2026-05-04 18:08 48.68622 9.20262 1287 ft 37 kts 74°
2026-05-04 18:09 48.69013 9.22321 1287 ft 155 kts 74°
2026-05-04 18:09 48.69680 9.25850 2010 ft 192 kts 70°
2026-05-04 18:10 48.70088 9.27843 2584 ft 204 kts 71°
2026-05-04 18:10 48.70503 9.29938 3218 ft 211 kts 70°
2026-05-04 18:10 48.70952 9.32126 3761 ft 225 kts 71°
2026-05-04 18:10 48.71273 9.34500 4502 ft 234 kts 88°
2026-05-04 18:11 48.70949 9.37001 5007 ft 257 kts 114°
2026-05-04 18:11 48.69823 9.39036 5002 ft 250 kts 150°
2026-05-04 18:11 48.68174 9.39588 5009 ft 247 kts 188°
2026-05-04 18:11 48.66585 9.38613 5016 ft 251 kts 212°
2026-05-04 18:12 48.65168 9.37048 5721 ft 253 kts 223°
2026-05-04 18:12 48.64062 9.34951 6549 ft 264 kts 240°
2026-05-04 18:12 48.63352 9.32321 7277 ft 274 kts 248°
2026-05-04 18:12 48.62698 9.29597 8164 ft 277 kts 248°
2026-05-04 18:13 48.62047 9.26842 9086 ft 279 kts 248°
2026-05-04 18:13 48.61436 9.24042 9976 ft 282 kts 251°
2026-05-04 18:13 48.60352 9.17988 10763 ft 321 kts 253°
2026-05-04 18:14 48.59778 9.14611 11004 ft 340 kts 253°
2026-05-04 18:14 48.59182 9.11105 11586 ft 348 kts 253°
2026-05-04 18:14 48.58568 9.07551 12279 ft 352 kts 253°
2026-05-04 18:15 48.57296 9.00380 13686 ft 360 kts 253°
2026-05-04 18:15 48.55972 8.93030 14978 ft 366 kts 253°
2026-05-04 18:15 48.55299 8.89312 15613 ft 369 kts 253°
2026-05-04 18:16 48.54620 8.85560 16238 ft 372 kts 253°
2026-05-04 18:16 48.53935 8.81789 16875 ft 375 kts 252°
2026-05-04 18:16 48.53246 8.77981 17523 ft 378 kts 252°
2026-05-04 18:17 48.51842 8.70242 18784 ft 384 kts 252°
2026-05-04 18:17 48.51131 8.66343 19406 ft 386 kts 252°
2026-05-04 18:17 48.49693 8.58484 20665 ft 391 kts 252°
2026-05-04 18:18 48.48967 8.54521 21242 ft 393 kts 252°
2026-05-04 18:18 48.48040 8.50639 21789 ft 393 kts 243°
2026-05-04 18:18 48.46660 8.47145 22320 ft 394 kts 232°
2026-05-04 18:18 48.44820 8.44076 22843 ft 396 kts 222°
2026-05-04 18:19 48.40110 8.39739 23796 ft 402 kts 202°
2026-05-04 18:19 48.37420 8.38537 23976 ft 405 kts 193°
2026-05-04 18:19 48.34642 8.37680 24332 ft 409 kts 193°
2026-05-04 18:20 48.31849 8.36812 24751 ft 410 kts 193°
2026-05-04 18:20 48.29052 8.35933 25163 ft 412 kts 193°
2026-05-04 18:20 48.26243 8.35045 25570 ft 413 kts 193°
2026-05-04 18:20 48.23423 8.34149 25948 ft 415 kts 193°
2026-05-04 18:21 48.20598 8.33251 26363 ft 416 kts 193°
2026-05-04 18:21 48.17725 8.32633 26767 ft 419 kts 185°
2026-05-04 18:21 48.14800 8.32705 27154 ft 423 kts 176°
2026-05-04 18:21 48.11876 8.33362 27542 ft 426 kts 173°
2026-05-04 18:22 48.09029 8.34061 27912 ft 427 kts 173°
2026-05-04 18:22 48.06092 8.34777 28282 ft 428 kts 173°
2026-05-04 18:22 48.03147 8.35490 28642 ft 430 kts 173°
2026-05-04 18:22 48.00192 8.36202 29053 ft 429 kts 173°
2026-05-04 18:23 47.97249 8.36911 29596 ft 427 kts 173°
2026-05-04 18:23 47.94327 8.37616 30127 ft 425 kts 173°
2026-05-04 18:23 47.91415 8.38316 30571 ft 423 kts 173°
2026-05-04 18:23 47.88512 8.39011 30991 ft 422 kts 173°
2026-05-04 18:24 47.85608 8.39708 31410 ft 421 kts 173°
2026-05-04 18:24 47.82719 8.40402 31830 ft 420 kts 173°
2026-05-04 18:24 47.79836 8.41094 32245 ft 420 kts 173°
2026-05-04 18:24 47.76952 8.41784 32662 ft 419 kts 174°
2026-05-04 18:25 47.74070 8.42477 33060 ft 419 kts 173°
2026-05-04 18:25 47.71266 8.43507 33470 ft 423 kts 164°
2026-05-04 18:25 47.68564 8.45266 33893 ft 428 kts 155°
2026-05-04 18:25 47.66072 8.47721 34290 ft 433 kts 145°
2026-05-04 18:26 47.63811 8.50722 34625 ft 436 kts 141°
2026-05-04 18:26 47.61579 8.53778 34924 ft 437 kts 141°
2026-05-04 18:26 47.60065 8.55846 35128 ft 438 kts 141°
2026-05-04 18:26 47.57852 8.58863 35416 ft 438 kts 141°
2026-05-04 18:27 47.55577 8.61960 35696 ft 439 kts 141°
2026-05-04 18:27 47.53354 8.64982 35973 ft 440 kts 141°
2026-05-04 18:27 47.51095 8.68046 36260 ft 441 kts 141°
2026-05-04 18:27 47.48834 8.71109 36534 ft 441 kts 141°
2026-05-04 18:28 47.46568 8.74177 36800 ft 442 kts 141°
2026-05-04 18:28 47.44299 8.77248 36971 ft 443 kts 141°
2026-05-04 18:28 47.39708 8.83437 37000 ft 448 kts 141°
2026-05-04 18:29 47.35097 8.89649 37005 ft 449 kts 141°
2026-05-04 18:29 47.30473 8.95855 37004 ft 449 kts 141°
2026-05-04 18:30 47.23518 9.05167 37007 ft 450 kts 141°
2026-05-04 18:31 47.18913 9.11324 37005 ft 450 kts 141°
2026-05-04 18:31 47.14270 9.17496 37005 ft 450 kts 141°
2026-05-04 18:32 47.09620 9.23661 37004 ft 450 kts 141°
2026-05-04 18:32 47.04974 9.29826 37010 ft 450 kts 141°
2026-05-04 18:33 47.00325 9.35980 37014 ft 450 kts 141°
2026-05-04 18:33 46.95666 9.42124 37028 ft 451 kts 141°
2026-05-04 18:34 46.91008 9.48256 37035 ft 451 kts 141°
2026-05-04 18:34 46.86339 9.54379 37044 ft 451 kts 141°
2026-05-04 18:35 46.81671 9.60489 37065 ft 451 kts 141°
2026-05-04 18:35 46.77024 9.66554 37086 ft 451 kts 141°
2026-05-04 18:36 46.72348 9.72641 37107 ft 451 kts 141°
2026-05-04 18:36 46.67669 9.78720 37119 ft 451 kts 141°
2026-05-04 18:37 46.62986 9.84806 37128 ft 452 kts 141°
2026-05-04 18:37 46.58290 9.90878 37124 ft 452 kts 141°
2026-05-04 18:38 46.53589 9.96931 37125 ft 452 kts 142°
2026-05-04 18:38 46.48866 10.02936 37132 ft 450 kts 145°
2026-05-04 18:39 46.43552 10.07595 37124 ft 446 kts 156°
2026-05-04 18:39 46.38211 10.11641 37123 ft 446 kts 156°
2026-05-04 18:40 46.32706 10.15819 37121 ft 447 kts 156°
2026-05-04 18:40 46.27226 10.19976 37132 ft 448 kts 156°
2026-05-04 18:41 46.21701 10.24150 37134 ft 449 kts 156°
2026-05-04 18:41 46.16161 10.28324 37141 ft 449 kts 156°
2026-05-04 18:42 46.10620 10.32485 37137 ft 450 kts 156°
2026-05-04 18:42 46.05067 10.36643 37142 ft 450 kts 156°
2026-05-04 18:43 45.99509 10.40800 37141 ft 451 kts 156°
2026-05-04 18:43 45.93940 10.44951 37134 ft 450 kts 156°
2026-05-04 18:44 45.88375 10.49098 37134 ft 451 kts 156°
2026-05-04 18:44 45.82794 10.53255 37122 ft 452 kts 156°
2026-05-04 18:45 45.77247 10.57370 37124 ft 452 kts 156°
2026-05-04 18:45 45.71655 10.61508 37107 ft 453 kts 156°
2026-05-04 18:46 45.66056 10.65633 37092 ft 453 kts 156°
2026-05-04 18:46 45.60442 10.69767 37071 ft 454 kts 156°
2026-05-04 18:47 45.54823 10.73897 37066 ft 454 kts 156°
2026-05-04 18:47 45.49187 10.78028 37063 ft 454 kts 156°
2026-05-04 18:48 45.43572 10.82129 37061 ft 455 kts 156°
2026-05-04 18:48 45.37931 10.86244 37060 ft 455 kts 156°
2026-05-04 18:49 45.32315 10.90331 37061 ft 455 kts 157°
2026-05-04 18:49 45.26669 10.94432 37060 ft 456 kts 157°
2026-05-04 18:50 45.21026 10.98525 37057 ft 456 kts 157°
2026-05-04 18:50 45.15361 11.02624 37054 ft 456 kts 157°
2026-05-04 18:51 45.09726 11.06690 37057 ft 457 kts 157°
2026-05-04 18:51 45.04053 11.10777 37067 ft 457 kts 157°
2026-05-04 18:52 44.98378 11.14859 37079 ft 457 kts 157°
2026-05-04 18:52 44.92701 11.18933 37092 ft 458 kts 157°
2026-05-04 18:53 44.86888 11.22497 37115 ft 455 kts 163°
2026-05-04 18:53 44.80984 11.25782 37108 ft 456 kts 163°
2026-05-04 18:54 44.75120 11.29053 37092 ft 456 kts 163°
2026-05-04 18:54 44.69205 11.32360 37078 ft 457 kts 163°
2026-05-04 18:55 44.63286 11.35647 37067 ft 457 kts 163°
2026-05-04 18:55 44.54409 11.40572 36551 ft 456 kts 163°
2026-05-04 18:56 44.51494 11.42186 36107 ft 456 kts 163°
2026-05-04 18:56 44.48537 11.43818 35730 ft 458 kts 163°
2026-05-04 18:56 44.45563 11.45455 35360 ft 459 kts 163°
2026-05-04 18:56 44.42585 11.47097 34997 ft 461 kts 163°
2026-05-04 18:57 44.39593 11.48743 34641 ft 462 kts 164°
2026-05-04 18:57 44.36597 11.50386 34286 ft 463 kts 163°
2026-05-04 18:57 44.33597 11.52030 33919 ft 464 kts 163°
2026-05-04 18:57 44.30590 11.53680 33517 ft 465 kts 163°
2026-05-04 18:58 44.27575 11.55336 33133 ft 466 kts 163°
2026-05-04 18:58 44.24557 11.56991 32737 ft 467 kts 163°
2026-05-04 18:58 44.21526 11.58648 32343 ft 467 kts 163°
2026-05-04 18:58 44.18495 11.60302 31949 ft 468 kts 163°
2026-05-04 18:59 44.15458 11.61956 31564 ft 469 kts 163°
2026-05-04 18:59 44.12422 11.63610 31176 ft 470 kts 162°
2026-05-04 18:59 44.09417 11.65245 30809 ft 470 kts 162°
2026-05-04 18:59 44.06326 11.66930 30439 ft 471 kts 162°
2026-05-04 19:00 44.03314 11.68574 30065 ft 472 kts 162°
2026-05-04 19:00 44.00252 11.70241 29637 ft 473 kts 162°
2026-05-04 19:00 43.97188 11.71904 29214 ft 473 kts 162°
2026-05-04 19:00 43.94114 11.73567 28807 ft 473 kts 162°
2026-05-04 19:01 43.91044 11.75225 28400 ft 474 kts 162°
2026-05-04 19:01 43.87971 11.76882 28006 ft 474 kts 162°
2026-05-04 19:01 43.84894 11.78539 27612 ft 474 kts 162°
2026-05-04 19:01 43.81828 11.80189 27248 ft 472 kts 162°
2026-05-04 19:02 43.78761 11.81835 27017 ft 470 kts 163°
2026-05-04 19:02 43.75644 11.83109 26783 ft 465 kts 170°
2026-05-04 19:02 43.72500 11.84127 26563 ft 464 kts 170°
2026-05-04 19:02 43.69365 11.85133 26336 ft 462 kts 170°
2026-05-04 19:03 43.66241 11.86124 26120 ft 460 kts 170°
2026-05-04 19:03 43.63115 11.87108 25898 ft 459 kts 170°
2026-05-04 19:03 43.60004 11.88085 25682 ft 457 kts 170°
2026-05-04 19:03 43.56911 11.89062 25464 ft 456 kts 170°
2026-05-04 19:04 43.53864 11.90033 25250 ft 454 kts 170°
2026-05-04 19:04 43.50779 11.90905 25035 ft 452 kts 172°
2026-05-04 19:04 43.47686 11.91627 24692 ft 449 kts 174°
2026-05-04 19:04 43.44565 11.92253 24312 ft 444 kts 174°
2026-05-04 19:05 43.41582 11.92816 23949 ft 433 kts 174°
2026-05-04 19:05 43.38638 11.93374 23564 ft 423 kts 174°
2026-05-04 19:05 43.35754 11.93943 23127 ft 414 kts 174°
2026-05-04 19:05 43.32928 11.94522 22733 ft 406 kts 173°
2026-05-04 19:06 43.30192 11.95099 22407 ft 388 kts 173°
2026-05-04 19:06 43.27569 11.95667 22090 ft 372 kts 173°
2026-05-04 19:06 43.25097 11.96213 21785 ft 356 kts 173°
2026-05-04 19:06 43.22669 11.96742 21473 ft 351 kts 174°
2026-05-04 19:07 43.20276 11.97253 21168 ft 346 kts 174°
2026-05-04 19:07 43.17906 11.97752 20868 ft 343 kts 174°
2026-05-04 19:07 43.15552 11.98246 20571 ft 342 kts 174°
2026-05-04 19:07 43.13209 11.98738 20278 ft 340 kts 174°
2026-05-04 19:08 43.10872 11.99231 19980 ft 338 kts 174°
2026-05-04 19:08 43.08550 11.99721 19692 ft 337 kts 174°
2026-05-04 19:08 43.06238 12.00212 19399 ft 336 kts 174°
2026-05-04 19:08 43.03935 12.00700 19107 ft 334 kts 174°
2026-05-04 19:09 43.01641 12.01183 18807 ft 332 kts 174°
2026-05-04 19:09 42.99358 12.01662 18505 ft 331 kts 174°
2026-05-04 19:09 42.97087 12.02140 18170 ft 329 kts 174°
2026-05-04 19:09 42.94833 12.02616 17828 ft 327 kts 174°
2026-05-04 19:10 42.92586 12.03089 17482 ft 325 kts 174°
2026-05-04 19:10 42.90353 12.03557 17142 ft 324 kts 174°
2026-05-04 19:10 42.88132 12.04026 16812 ft 322 kts 174°
2026-05-04 19:10 42.85925 12.04493 16455 ft 320 kts 174°
2026-05-04 19:11 42.83727 12.04957 16108 ft 319 kts 174°
2026-05-04 19:11 42.81572 12.05409 15761 ft 317 kts 174°
2026-05-04 19:11 42.79394 12.05865 15418 ft 315 kts 174°
2026-05-04 19:11 42.77233 12.06318 15088 ft 313 kts 174°
2026-05-04 19:12 42.75082 12.06769 14772 ft 312 kts 174°
2026-05-04 19:12 42.70821 12.07662 14150 ft 309 kts 174°
2026-05-04 19:12 42.68700 12.08105 13837 ft 307 kts 174°
2026-05-04 19:13 42.66594 12.08542 13489 ft 305 kts 174°
2026-05-04 19:13 42.64502 12.08638 13150 ft 299 kts 191°
2026-05-04 19:13 42.62564 12.07759 12812 ft 292 kts 212°
2026-05-04 19:13 42.61005 12.06051 12481 ft 287 kts 227°
2026-05-04 19:14 42.59614 12.04119 12270 ft 286 kts 226°
2026-05-04 19:14 42.58236 12.02202 12145 ft 287 kts 226°
2026-05-04 19:14 42.56838 12.00257 12019 ft 287 kts 226°
2026-05-04 19:14 42.55440 11.98321 11896 ft 287 kts 226°
2026-05-04 19:15 42.54056 11.96411 11766 ft 278 kts 226°
2026-05-04 19:15 42.52736 11.94588 11636 ft 265 kts 226°
2026-05-04 19:15 42.51468 11.92842 11513 ft 254 kts 226°
2026-05-04 19:15 42.50252 11.91166 11390 ft 251 kts 226°
2026-05-04 19:16 42.49054 11.89456 11268 ft 250 kts 232°
2026-05-04 19:16 42.48227 11.87394 11145 ft 250 kts 253°
2026-05-04 19:16 42.48143 11.85060 11016 ft 252 kts 281°
2026-05-04 19:16 42.48914 11.82931 10900 ft 257 kts 309°
2026-05-04 19:17 42.50384 11.81544 10778 ft 263 kts 339°
2026-05-04 19:17 42.52203 11.81311 10659 ft 268 kts
2026-05-04 19:17 42.53895 11.82332 10542 ft 270 kts 38°
2026-05-04 19:17 42.55340 11.83918 10426 ft 271 kts 39°
2026-05-04 19:18 42.56801 11.85548 10306 ft 271 kts 39°
2026-05-04 19:18 42.58254 11.87171 10187 ft 270 kts 39°
2026-05-04 19:18 42.59674 11.88840 10061 ft 270 kts 49°
2026-05-04 19:18 42.60341 11.90235 9941 ft 266 kts 70°
2026-05-04 19:19 42.60602 11.92670 9763 ft 261 kts 101°
2026-05-04 19:19 42.59972 11.94911 9578 ft 253 kts 130°
2026-05-04 19:19 42.58668 11.96444 9398 ft 247 kts 157°
2026-05-04 19:19 42.57037 11.96988 9216 ft 242 kts 183°
2026-05-04 19:20 42.55421 11.96478 9035 ft 239 kts 208°
2026-05-04 19:20 42.54059 11.95195 8838 ft 239 kts 217°
2026-05-04 19:20 42.52762 11.93782 8639 ft 239 kts 219°
2026-05-04 19:20 42.51483 11.92353 8437 ft 238 kts 218°
2026-05-04 19:21 42.50212 11.90924 8232 ft 237 kts 218°
2026-05-04 19:21 42.48975 11.89456 8036 ft 237 kts 228°
2026-05-04 19:21 42.48020 11.87655 7954 ft 234 kts 220°
2026-05-04 19:21 42.46555 11.86766 7795 ft 237 kts 184°
2026-05-04 19:22 42.44938 11.86826 7603 ft 241 kts 174°
2026-05-04 19:22 42.43295 11.87668 7434 ft 264 kts 146°
2026-05-04 19:22 42.41847 11.89256 7260 ft 269 kts 142°
2026-05-04 19:22 42.40417 11.90880 7089 ft 268 kts 142°
2026-05-04 19:23 42.38987 11.92501 6942 ft 268 kts 142°
2026-05-04 19:23 42.37557 11.94113 6801 ft 267 kts 142°
2026-05-04 19:23 42.36131 11.95712 6661 ft 266 kts 142°
2026-05-04 19:23 42.34707 11.97304 6509 ft 265 kts 142°
2026-05-04 19:24 42.33289 11.98886 6354 ft 264 kts 142°
2026-05-04 19:24 42.31872 12.00464 6201 ft 264 kts 142°
2026-05-04 19:24 42.30459 12.02040 6048 ft 263 kts 142°
2026-05-04 19:24 42.29054 12.03608 5895 ft 262 kts 142°
2026-05-04 19:25 42.27647 12.05176 5743 ft 261 kts 142°
2026-05-04 19:25 42.26248 12.06732 5594 ft 260 kts 142°
2026-05-04 19:25 42.24850 12.08288 5437 ft 259 kts 142°
2026-05-04 19:25 42.23460 12.09833 5289 ft 259 kts 142°
2026-05-04 19:26 42.22094 12.11352 5140 ft 258 kts 142°
2026-05-04 19:26 42.20711 12.12884 4991 ft 256 kts 142°
2026-05-04 19:26 42.19357 12.14388 4834 ft 248 kts 142°
2026-05-04 19:26 42.18054 12.15837 4709 ft 235 kts 142°
2026-05-04 19:27 42.16795 12.17234 4568 ft 244 kts 142°
2026-05-04 19:27 42.15353 12.18528 4400 ft 252 kts 156°
2026-05-04 19:27 42.13681 12.19089 4217 ft 246 kts 182°
2026-05-04 19:27 42.12019 12.18674 4048 ft 241 kts 192°
2026-05-04 19:28 42.10405 12.18187 3878 ft 234 kts 192°
2026-05-04 19:28 42.08861 12.17738 3691 ft 218 kts 187°
2026-05-04 19:28 42.07416 12.17838 3528 ft 203 kts 167°
2026-05-04 19:28 42.06063 12.18243 3362 ft 196 kts 168°
2026-05-04 19:29 42.04771 12.18631 3182 ft 189 kts 168°
2026-05-04 19:29 42.03534 12.19004 3051 ft 175 kts 168°
2026-05-04 19:29 42.02395 12.19347 2891 ft 160 kts 168°
2026-05-04 19:29 42.01360 12.19660 2735 ft 145 kts 168°
2026-05-04 19:30 42.00408 12.19946 2657 ft 137 kts 167°
2026-05-04 19:30 41.99488 12.20222 2604 ft 134 kts 168°
2026-05-04 19:30 41.98588 12.20494 2588 ft 132 kts 168°
2026-05-04 19:30 41.97696 12.20763 2588 ft 131 kts 168°
2026-05-04 19:31 41.96818 12.21027 2592 ft 131 kts 168°
2026-05-04 19:31 41.95939 12.21364 2573 ft 132 kts 163°
2026-05-04 19:31 41.95066 12.21742 2336 ft 131 kts 163°
2026-05-04 19:31 41.94200 12.22112 2138 ft 130 kts 163°
2026-05-04 19:32 41.93335 12.22479 1946 ft 130 kts 163°
2026-05-04 19:32 41.92475 12.22841 1779 ft 130 kts 163°
2026-05-04 19:32 41.91616 12.23205 1583 ft 129 kts 163°
2026-05-04 19:32 41.90759 12.23567 1422 ft 129 kts 163°
2026-05-04 19:33 41.89904 12.23933 1257 ft 128 kts 164°
2026-05-04 19:33 41.89052 12.24288 1014 ft 129 kts 163°
2026-05-04 19:33 41.88190 12.24650 786 ft 130 kts 162°
2026-05-04 19:33 41.87326 12.25012 634 ft 130 kts 163°
2026-05-04 19:34 41.86469 12.25362 463 ft 130 kts 162°
2026-05-04 19:34 41.85601 12.25739 268 ft 131 kts 163°
2026-05-04 19:34 41.84732 12.26097 90 ft 130 kts 162°
2026-05-04 19:34 41.83908 12.26445 22 ft 109 kts 163°
2026-05-04 19:35 41.83313 12.26683 21 ft 71 kts 163°
2026-05-04 19:35 41.82915 12.26847 22 ft 53 kts 167°
2026-05-04 19:35 41.82613 12.26841 20 ft 33 kts 193°
2026-05-04 19:35 41.82561 12.26825 19 ft 0 kts 193°
2026-05-04 19:37 41.82532 12.26816 19 ft 9 kts 193°
2026-05-04 19:38 41.82437 12.26789 17 ft 18 kts 192°
2026-05-04 19:38 41.82285 12.26792 16 ft 26 kts 162°
2026-05-04 19:38 41.82100 12.26868 14 ft 29 kts 163°
2026-05-04 19:38 41.81941 12.26938 16 ft 15 kts 162°
2026-05-04 19:39 41.81831 12.26984 16 ft 18 kts 162°
2026-05-04 19:39 41.81710 12.27037 19 ft 19 kts 163°
2026-05-04 19:39 41.81575 12.27090 20 ft 21 kts 162°
2026-05-04 19:39 41.81426 12.27153 21 ft 24 kts 162°
2026-05-04 19:40 41.81251 12.27227 16 ft 28 kts 165°
2026-05-04 19:40 41.81056 12.27309 14 ft 31 kts 162°
2026-05-04 19:40 41.80868 12.27341 15 ft 27 kts 189°
2026-05-04 19:40 41.80704 12.27294 15 ft 20 kts 206°
2026-05-04 19:41 41.80630 12.27131 16 ft 23 kts 249°
2026-05-04 19:41 41.80567 12.26924 17 ft 25 kts 245°
2026-05-04 19:41 41.80515 12.26712 16 ft 21 kts 249°
2026-05-04 19:41 41.80459 12.26513 17 ft 24 kts 251°
2026-05-04 19:42 41.80421 12.26374 14 ft 1 kts 248°
2026-05-04 19:42 41.80413 12.26359 14 ft 2 kts 214°
2026-05-04 19:42 41.80387 12.26362 14 ft 7 kts 174°
2026-05-04 19:42 41.80298 12.26395 15 ft 18 kts 160°
2026-05-04 19:43 41.80165 12.26375 17 ft 22 kts 204°
2026-05-04 19:43 41.80016 12.26282 19 ft 25 kts 205°
2026-05-04 19:43 41.79866 12.26190 21 ft 12 kts 206°
2026-05-04 19:43 41.79837 12.26163 21 ft 3 kts 217°
2026-05-04 19:44 41.79826 12.26152 19 ft 3 kts 219°
2026-05-04 19:44 41.79820 12.26144 19 ft 0 kts 226°
2026-05-04 19:45 41.79819 12.26141 19 ft 2 kts 226°
2026-05-04 19:45 41.79793 12.26126 19 ft 7 kts 206°
2026-05-04 19:45 41.79769 12.26062 19 ft 11 kts 286°
2026-05-04 19:45 41.79808 12.25945 19 ft 16 kts 295°
2026-05-04 19:46 41.79844 12.25799 18 ft 7 kts 250°
2026-05-04 19:46 41.79799 12.25767 18 ft 10 kts 203°
2026-05-04 19:46 41.79724 12.25716 18 ft 15 kts 207°
2026-05-04 19:46 41.79688 12.25696 20 ft 2 kts 178°
2026-05-04 19:47 41.79667 12.25717 18 ft 6 kts 129°
2026-05-04 19:47 41.79646 12.25771 19 ft 0 kts 115°
2026-05-04 19:48 41.79569 12.25994 21 ft 0 kts 296°